| time (UTC) | temp C | wind direction | speed KPH | gust KPH | rain 1hr cm | rain 24hr cm | rain mn cm | humidity % | barometer mb |
| 20260505214535 | 23 | 345 | 8.0 | 17.7 | 0.00 | 0.00 | 0.00 | 51 | 1014.8 |
| 20260505211531 | 22 | 338 | 8.0 | 17.7 | 0.00 | 0.00 | 0.00 | 52 | 1014.9 |
| 20260505204536 | 22 | 341 | 6.4 | 14.5 | 0.00 | 0.00 | 0.00 | 51 | 1015.2 |
| 20260505201532 | 22 | 330 | 8.0 | 14.5 | 0.00 | 0.00 | 0.00 | 53 | 1015.2 |
| 20260505194530 | 21 | 355 | 8.0 | 16.1 | 0.00 | 0.00 | 0.00 | 54 | 1015.3 |
| 20260505193032 | 21 | 347 | 8.0 | 19.3 | 0.00 | 0.00 | 0.00 | 54 | 1015.4 |
| 20260505191531 | 21 | 330 | 6.4 | 12.9 | 0.00 | 0.00 | 0.00 | 55 | 1015.5 |
| 20260505190035 | 21 | 355 | 8.0 | 14.5 | 0.00 | 0.00 | 0.00 | 55 | 1015.6 |
| 20260505184534 | 20 | 20 | 6.4 | 14.5 | 0.00 | 0.00 | 0.00 | 57 | 1015.6 |
| 20260505181530 | 19 | 14 | 8.0 | 17.7 | 0.00 | 0.00 | 0.00 | 58 | 1015.6 |
| 20260505180035 | 18 | 7 | 9.7 | 17.7 | 0.00 | 0.00 | 0.00 | 59 | 1015.6 |
| 20260505174532 | 18 | 8 | 9.7 | 17.7 | 0.00 | 0.00 | 0.00 | 59 | 1015.5 |
| 20260505173029 | 18 | 18 | 8.0 | 14.5 | 0.00 | 0.00 | 0.00 | 61 | 1015.4 |
| 20260505170033 | 18 | 342 | 9.7 | 14.5 | 0.00 | 0.00 | 0.00 | 62 | 1015.4 |
| 20260505164535 | 17 | 341 | 9.7 | 16.1 | 0.00 | 0.00 | 0.00 | 64 | 1015.3 |
| 20260505161605 | 16 | 354 | 8.0 | 14.5 | 0.00 | 0.00 | 0.00 | 65 | 1015.3 |
| 20260505153030 | 15 | 340 | 4.8 | 8.0 | 0.00 | 0.00 | 0.00 | 68 | 1015.2 |
| 20260505151533 | 15 | 342 | 4.8 | 8.0 | 0.00 | 0.00 | 0.00 | 69 | 1015.1 |
| 20260505124531 | 9 | 138 | 8.0 | 12.9 | 0.00 | 0.00 | 0.00 | 81 | 1014.2 |
| 20260505123031 | 9 | 140 | 6.4 | 9.7 | 0.00 | 0.00 | 0.00 | 81 | 1014.1 |
| 20260505121534 | 9 | 142 | 6.4 | 11.3 | 0.00 | 0.00 | 0.00 | 81 | 1014.1 |
| 20260505120134 | 10 | 137 | 6.4 | 9.7 | 0.00 | 0.00 | 0.00 | 80 | 1014.2 |
| 20260505113032 | 10 | 135 | 6.4 | 9.7 | 0.00 | 0.00 | 0.00 | 80 | 1014.1 |
| 20260505111607 | 10 | 135 | 6.4 | 11.3 | 0.00 | 0.00 | 0.00 | 80 | 1014.0 |
| 20260505101531 | 10 | 106 | 4.8 | 6.4 | 0.00 | 0.00 | 0.00 | 77 | 1013.8 |
| 20260505100107 | 10 | 91 | 6.4 | 9.7 | 0.00 | 0.00 | 0.00 | 76 | 1013.6 |
| 20260505094535 | 11 | 80 | 4.8 | 9.7 | 0.00 | 0.00 | 0.00 | 74 | 1013.6 |
| 20260505093037 | 11 | 136 | 8.0 | 12.9 | 0.00 | 0.00 | 0.00 | 73 | 1013.5 |
| 20260505091634 | 11 | 139 | 9.7 | 14.5 | 0.00 | 0.00 | 0.00 | 72 | 1013.4 |
| 20260505084532 | 12 | 144 | 9.7 | 16.1 | 0.00 | 0.00 | 0.00 | 72 | 1013.3 |
| 20260505083033 | 12 | 138 | 9.7 | 14.5 | 0.00 | 0.00 | 0.00 | 71 | 1013.4 |
| 20260505081535 | 12 | 136 | 9.7 | 16.1 | 0.00 | 0.00 | 0.00 | 71 | 1013.3 |
| 20260505080031 | 12 | 135 | 8.0 | 14.5 | 0.00 | 0.00 | 0.00 | 71 | 1013.4 |
| 20260505074530 | 12 | 135 | 8.0 | 11.3 | 0.00 | 0.00 | 0.00 | 71 | 1013.4 |
| 20260505073031 | 12 | 139 | 8.0 | 14.5 | 0.00 | 0.00 | 0.00 | 71 | 1013.3 |
| 20260505071530 | 13 | 144 | 8.0 | 12.9 | 0.00 | 0.00 | 0.00 | 73 | 1013.2 |
| 20260505070031 | 13 | 98 | 1.6 | 6.4 | 0.00 | 0.00 | 0.00 | 75 | 1013.1 |
| 20260505064605 | 12 | 118 | 1.6 | 8.0 | 0.00 | 0.00 | 0.00 | 75 | 1013.2 |
| 20260505063029 | 12 | 106 | 3.2 | 6.4 | 0.00 | 0.00 | 0.00 | 73 | 1013.2 |
| 20260505061536 | 12 | 115 | 3.2 | 6.4 | 0.00 | 0.00 | 0.00 | 71 | 1013.2 |
| 20260505060107 | 13 | 105 | 1.6 | 6.4 | 0.00 | 0.00 | 0.00 | 68 | 1013.2 |
| 20260505054531 | 14 | 247 | 1.6 | 9.7 | 0.00 | 0.00 | 0.00 | 67 | 1013.2 |
| 20260505053037 | 15 | 252 | 3.2 | 14.5 | 0.00 | 0.00 | 0.00 | 66 | 1013.1 |
| 20260505051605 | 14 | 241 | 4.8 | 17.7 | 0.00 | 0.00 | 0.00 | 65 | 1013.1 |
| 20260505041531 | 14 | 202 | 3.2 | 9.7 | 0.00 | 0.00 | 0.00 | 56 | 1012.7 |
| 20260505040107 | 15 | 213 | 1.6 | 6.4 | 0.00 | 0.00 | 0.00 | 54 | 1012.5 |
| 20260505034528 | 16 | 231 | 4.8 | 14.5 | 0.00 | 0.00 | 0.00 | 51 | 1012.3 |
| 20260505033030 | 16 | 223 | 1.6 | 9.7 | 0.00 | 0.00 | 0.00 | 49 | 1012.1 |
| 20260505031533 | 17 | 219 | 4.8 | 16.1 | 0.00 | 0.00 | 0.00 | 46 | 1011.9 |
| 20260505030034 | 18 | 213 | 4.8 | 17.7 | 0.00 | 0.00 | 0.00 | 45 | 1011.7 |
| 20260505023031 | 20 | 232 | 4.8 | 16.1 | 0.00 | 0.00 | 0.00 | 41 | 1011.5 |
| 20260505021605 | 20 | 295 | 4.8 | 12.9 | 0.00 | 0.00 | 0.00 | 40 | 1011.4 |
| 20260505020035 | 21 | 291 | 4.8 | 16.1 | 0.00 | 0.00 | 0.00 | 38 | 1011.3 |
| 20260505014532 | 22 | 258 | 8.0 | 20.9 | 0.00 | 0.00 | 0.00 | 36 | 1011.3 |
| 20260505013034 | 22 | 271 | 6.4 | 20.9 | 0.00 | 0.00 | 0.00 | 35 | 1011.4 |
| 20260505011536 | 22 | 245 | 6.4 | 20.9 | 0.00 | 0.00 | 0.00 | 34 | 1011.3 |
| 20260505010033 | 23 | 237 | 9.7 | 30.6 | 0.00 | 0.00 | 0.00 | 33 | 1011.3 |
| 20260505004529 | 23 | 237 | 9.7 | 33.8 | 0.00 | 0.00 | 0.00 | 33 | 1011.4 |
| 20260505003031 | 24 | 234 | 11.3 | 29.0 | 0.00 | 0.00 | 0.00 | 33 | 1011.3 |
| 20260505001528 | 24 | 234 | 14.5 | 29.0 | 0.00 | 0.00 | 0.00 | 33 | 1011.2 |
| 20260505000038 | 25 | 230 | 12.9 | 27.4 | 0.00 | 0.00 | 0.00 | 33 | 1011.3 |
| 20260504233031 | 26 | 236 | 8.0 | 22.5 | 0.00 | 0.00 | 0.00 | 33 | 1011.2 |
| 20260504230031 | 26 | 249 | 8.0 | 24.1 | 0.00 | 0.00 | 0.00 | 33 | 1011.3 |
| 20260504224531 | 26 | 237 | 9.7 | 24.1 | 0.00 | 0.00 | 0.00 | 33 | 1011.4 |